Time,TemperatureF,DewpointF,PressureIn,WindDirection,WindDirectionDegrees,WindSpeedMPH,WindSpeedGustMPH,Humidity,HourlyPrecipIn,Conditions,Clouds,dailyrainin,SoftwareType,DateUTC
2013-01-14 00:06:00,66.3,61.3,30.04,SW,214,7.0,9.0,84,0.00,,,0.00,Wunderground v.1.15,2013-01-14 05:06:00,
2013-01-14 00:11:00,66.3,61.3,30.04,SW,221,9.0,11.0,84,0.00,,,0.00,Wunderground v.1.15,2013-01-14 05:11:00,
2013-01-14 00:17:00,66.3,61.3,30.04,SW,222,5.0,11.0,84,0.00,,,0.00,Wunderground v.1.15,2013-01-14 05:17:00,
2013-01-14 00:22:00,66.4,61.4,30.04,WSW,240,8.0,8.0,84,0.00,,,0.00,Wunderground v.1.15,2013-01-14 05:22:00,
2013-01-14 00:27:00,66.3,61.3,30.04,SSW,201,6.0,8.0,84,0.00,,,0.00,Wunderground v.1.15,2013-01-14 05:27:00,
2013-01-14 00:32:00,66.3,61.3,30.04,SSW,197,6.0,6.0,84,0.00,,,0.00,Wunderground v.1.15,2013-01-14 05:32:00,
2013-01-14 00:37:00,66.2,61.2,30.04,SSW,202,6.0,6.0,84,0.00,,,0.00,Wunderground v.1.15,2013-01-14 05:37:00,
2013-01-14 00:43:00,66.1,61.1,30.04,SW,235,7.0,7.0,84,0.00,,,0.00,Wunderground v.1.15,2013-01-14 05:43:00,
2013-01-14 00:48:00,66.1,61.1,30.03,SSW,209,5.0,7.0,84,0.00,,,0.00,Wunderground v.1.15,2013-01-14 05:48:00,
2013-01-14 00:53:00,66.0,61.4,30.04,SSW,196,6.0,6.0,85,0.00,,,0.00,Wunderground v.1.15,2013-01-14 05:53:00,
2013-01-14 00:58:00,66.0,61.0,30.04,SSW,196,5.0,7.0,84,0.00,,,0.00,Wunderground v.1.15,2013-01-14 05:58:00,
2013-01-14 01:04:00,66.0,61.4,30.03,SSW,195,8.0,8.0,85,0.00,,,0.00,Wunderground v.1.15,2013-01-14 06:04:00,
2013-01-14 01:09:00,66.0,61.0,30.04,South,191,7.0,8.0,84,0.00,,,0.00,Wunderground v.1.15,2013-01-14 06:09:00,
2013-01-14 01:14:00,65.9,61.3,30.04,SW,217,6.0,8.0,85,0.00,,,0.00,Wunderground v.1.15,2013-01-14 06:14:00,
2013-01-14 01:20:00,65.9,61.3,30.04,SW,228,5.0,8.0,85,0.00,,,0.00,Wunderground v.1.15,2013-01-14 06:20:00,
2013-01-14 01:25:00,65.9,61.3,30.04,SW,218,5.0,8.0,85,0.00,,,0.00,Wunderground v.1.15,2013-01-14 06:25:00,
2013-01-14 01:30:00,65.9,61.3,30.04,SW,215,7.0,8.0,85,0.00,,,0.00,Wunderground v.1.15,2013-01-14 06:30:00,
2013-01-14 01:35:00,66.0,61.4,30.04,SW,215,10.0,10.0,85,0.00,,,0.00,Wunderground v.1.15,2013-01-14 06:35:00,
2013-01-14 01:40:00,66.1,61.5,30.04,SW,219,6.0,7.0,85,0.00,,,0.00,Wunderground v.1.15,2013-01-14 06:40:00,
2013-01-14 01:46:00,66.1,61.1,30.04,SW,219,7.0,10.0,84,0.00,,,0.00,Wunderground v.1.15,2013-01-14 06:46:00,
2013-01-14 01:51:00,66.2,61.2,30.04,SW,217,5.0,7.0,84,0.00,,,0.00,Wunderground v.1.15,2013-01-14 06:51:00,
2013-01-14 01:56:00,66.2,61.2,30.05,SW,227,4.0,7.0,84,0.00,,,0.00,Wunderground v.1.15,2013-01-14 06:56:00,
2013-01-14 02:01:00,66.2,61.2,30.05,SSW,199,4.0,6.0,84,0.00,,,0.00,Wunderground v.1.15,2013-01-14 07:01:00,
2013-01-14 02:07:00,66.2,61.2,30.05,SW,215,5.0,7.0,84,0.00,,,0.00,Wunderground v.1.15,2013-01-14 07:07:00,
2013-01-14 02:12:00,66.1,61.1,30.05,SSW,204,5.0,6.0,84,0.00,,,0.00,Wunderground v.1.15,2013-01-14 07:12:00,
2013-01-14 02:17:00,66.1,61.1,30.04,SSW,210,9.0,11.0,84,0.00,,,0.00,Wunderground v.1.15,2013-01-14 07:17:00,
2013-01-14 02:22:00,66.1,61.1,30.04,SW,219,5.0,9.0,84,0.00,,,0.00,Wunderground v.1.15,2013-01-14 07:22:00,
2013-01-14 02:27:00,66.1,61.1,30.04,SSW,205,6.0,11.0,84,0.00,,,0.00,Wunderground v.1.15,2013-01-14 07:27:00,
2013-01-14 02:32:00,66.1,61.5,30.04,SSW,209,6.0,6.0,85,0.00,,,0.00,Wunderground v.1.15,2013-01-14 07:32:00,
2013-01-14 02:37:00,66.1,61.1,30.04,SW,227,6.0,11.0,84,0.00,,,0.00,Wunderground v.1.15,2013-01-14 07:37:00,
2013-01-14 02:42:00,66.0,61.4,30.04,SW,234,8.0,10.0,85,0.00,,,0.00,Wunderground v.1.15,2013-01-14 07:42:00,
2013-01-14 02:47:00,65.9,60.9,30.05,SW,222,3.0,11.0,84,0.00,,,0.00,Wunderground v.1.15,2013-01-14 07:47:00,
2013-01-14 02:52:00,65.8,61.2,30.05,WSW,243,7.0,7.0,85,0.00,,,0.00,Wunderground v.1.15,2013-01-14 07:52:00,
2013-01-14 02:57:00,65.7,61.1,30.05,SSW,211,5.0,8.0,85,0.00,,,0.00,Wunderground v.1.15,2013-01-14 07:57:00,
2013-01-14 03:02:00,65.7,61.1,30.05,SSW,192,5.0,6.0,85,0.00,,,0.00,Wunderground v.1.15,2013-01-14 08:02:00,
2013-01-14 03:07:00,65.6,61.3,30.05,SW,235,4.0,8.0,86,0.00,,,0.00,Wunderground v.1.15,2013-01-14 08:07:00,
2013-01-14 03:12:00,65.6,61.3,30.05,SW,221,5.0,9.0,86,0.00,,,0.00,Wunderground v.1.15,2013-01-14 08:12:00,
2013-01-14 03:17:00,65.6,61.3,30.04,SW,216,4.0,9.0,86,0.00,,,0.00,Wunderground v.1.15,2013-01-14 08:17:00,
2013-01-14 03:22:00,65.5,61.2,30.04,SSW,203,8.0,8.0,86,0.00,,,0.00,Wunderground v.1.15,2013-01-14 08:22:00,
2013-01-14 03:27:00,65.5,61.2,30.04,SSW,208,5.0,8.0,86,0.00,,,0.00,Wunderground v.1.15,2013-01-14 08:27:00,
2013-01-14 03:32:00,65.4,61.1,30.04,SW,223,6.0,8.0,86,0.00,,,0.00,Wunderground v.1.15,2013-01-14 08:32:00,
2013-01-14 03:37:00,65.4,61.1,30.04,SW,221,4.0,8.0,86,0.00,,,0.00,Wunderground v.1.15,2013-01-14 08:37:00,
2013-01-14 03:42:00,65.3,61.0,30.04,SSW,209,4.0,5.0,86,0.00,,,0.00,Wunderground v.1.15,2013-01-14 08:42:00,
2013-01-14 03:47:00,65.2,60.9,30.03,SSW,210,4.0,8.0,86,0.00,,,0.00,Wunderground v.1.15,2013-01-14 08:47:00,
2013-01-14 03:52:00,65.2,60.9,30.03,SW,217,3.0,5.0,86,0.00,,,0.00,Wunderground v.1.15,2013-01-14 08:52:00,
2013-01-14 03:57:00,65.2,61.2,30.03,SSW,200,4.0,6.0,87,0.00,,,0.00,Wunderground v.1.15,2013-01-14 08:57:00,
2013-01-14 04:02:00,65.1,61.1,30.02,SSW,213,3.0,5.0,87,0.00,,,0.00,Wunderground v.1.15,2013-01-14 09:02:00,
2013-01-14 04:07:00,65.0,61.0,30.03,SW,218,4.0,8.0,87,0.00,,,0.00,Wunderground v.1.15,2013-01-14 09:07:00,
2013-01-14 04:12:00,65.0,61.0,30.02,SW,229,4.0,7.0,87,0.00,,,0.00,Wunderground v.1.15,2013-01-14 09:12:00,
2013-01-14 04:17:00,65.0,61.0,30.02,SSW,209,7.0,10.0,87,0.00,,,0.00,Wunderground v.1.15,2013-01-14 09:17:00,
2013-01-14 04:22:00,65.0,61.0,30.02,SW,219,3.0,11.0,87,0.00,,,0.00,Wunderground v.1.15,2013-01-14 09:22:00,
2013-01-14 04:27:00,65.0,61.0,30.02,SSW,202,6.0,11.0,87,0.00,,,0.00,Wunderground v.1.15,2013-01-14 09:27:00,
2013-01-14 04:32:00,65.0,61.0,30.02,SSW,198,6.0,8.0,87,0.00,,,0.00,Wunderground v.1.15,2013-01-14 09:32:00,
2013-01-14 04:37:00,65.0,61.0,30.02,SW,216,4.0,8.0,87,0.00,,,0.00,Wunderground v.1.15,2013-01-14 09:37:00,
2013-01-14 04:42:00,64.9,60.9,30.02,SW,223,4.0,7.0,87,0.00,,,0.00,Wunderground v.1.15,2013-01-14 09:42:00,
2013-01-14 04:47:00,64.8,60.8,30.02,SSW,213,6.0,10.0,87,0.00,,,0.00,Wunderground v.1.15,2013-01-14 09:47:00,
2013-01-14 04:52:00,64.8,60.8,30.03,SSW,212,7.0,8.0,87,0.00,,,0.00,Wunderground v.1.15,2013-01-14 09:52:00,
2013-01-14 04:57:00,64.8,60.8,30.02,SSW,212,8.0,8.0,87,0.00,,,0.00,Wunderground v.1.15,2013-01-14 09:57:00,
2013-01-14 05:02:00,64.8,61.2,30.02,SW,214,8.0,10.0,88,0.00,,,0.00,Wunderground v.1.15,2013-01-14 10:02:00,
2013-01-14 05:07:00,64.8,61.2,30.02,SW,215,6.0,12.0,88,0.00,,,0.00,Wunderground v.1.15,2013-01-14 10:07:00,
2013-01-14 05:12:00,64.7,61.1,30.01,SSW,192,7.0,10.0,88,0.00,,,0.00,Wunderground v.1.15,2013-01-14 10:12:00,
2013-01-14 05:17:00,64.6,61.0,30.01,SSW,209,7.0,11.0,88,0.00,,,0.00,Wunderground v.1.15,2013-01-14 10:17:00,
2013-01-14 05:22:00,64.5,60.9,30.02,SW,235,8.0,8.0,88,0.00,,,0.00,Wunderground v.1.15,2013-01-14 10:22:00,
2013-01-14 05:27:00,64.5,60.9,30.02,SSW,207,5.0,10.0,88,0.00,,,0.00,Wunderground v.1.15,2013-01-14 10:27:00,
2013-01-14 05:32:00,64.5,61.2,30.02,SSW,212,5.0,9.0,89,0.00,,,0.00,Wunderground v.1.15,2013-01-14 10:32:00,
2013-01-14 05:37:00,64.5,61.2,30.02,South,184,6.0,9.0,89,0.00,,,0.00,Wunderground v.1.15,2013-01-14 10:37:00,
2013-01-14 05:42:00,64.6,61.0,30.02,SW,217,4.0,7.0,88,0.00,,,0.00,Wunderground v.1.15,2013-01-14 10:42:00,
2013-01-14 05:47:00,64.5,61.2,30.02,SW,220,5.0,10.0,89,0.00,,,0.00,Wunderground v.1.15,2013-01-14 10:47:00,
2013-01-14 05:52:00,64.6,61.3,30.03,SW,225,5.0,8.0,89,0.00,,,0.00,Wunderground v.1.15,2013-01-14 10:52:00,
2013-01-14 05:57:00,64.7,61.4,30.02,SW,220,3.0,8.0,89,0.00,,,0.00,Wunderground v.1.15,2013-01-14 10:57:00,
2013-01-14 06:02:00,64.6,61.3,30.03,SSW,207,4.0,7.0,89,0.00,,,0.00,Wunderground v.1.15,2013-01-14 11:02:00,
2013-01-14 06:07:00,64.7,61.4,30.02,SW,223,6.0,9.0,89,0.00,,,0.00,Wunderground v.1.15,2013-01-14 11:07:00,
2013-01-14 06:12:00,64.8,61.5,30.02,SSW,209,7.0,11.0,89,0.00,,,0.00,Wunderground v.1.15,2013-01-14 11:12:00,
2013-01-14 06:17:00,64.9,61.6,30.02,SW,215,6.0,13.0,89,0.00,,,0.00,Wunderground v.1.15,2013-01-14 11:17:00,
2013-01-14 06:23:00,65.0,61.7,30.03,WSW,251,3.0,7.0,89,0.00,,,0.00,Wunderground v.1.15,2013-01-14 11:23:00,
2013-01-14 06:28:00,65.2,61.9,30.03,SW,227,12.0,17.0,89,0.00,,,0.00,Wunderground v.1.15,2013-01-14 11:28:00,
2013-01-14 06:33:00,65.3,61.7,30.03,West,263,7.0,11.0,88,0.00,,,0.00,Wunderground v.1.15,2013-01-14 11:33:00,
2013-01-14 06:38:00,65.4,61.8,30.04,WSW,250,2.0,13.0,88,0.00,,,0.00,Wunderground v.1.15,2013-01-14 11:38:00,
2013-01-14 06:43:00,65.4,61.8,30.04,WSW,240,5.0,9.0,88,0.00,,,0.00,Wunderground v.1.15,2013-01-14 11:43:00,
2013-01-14 06:48:00,65.4,62.1,30.04,SW,217,5.0,10.0,89,0.00,,,0.00,Wunderground v.1.15,2013-01-14 11:48:00,
2013-01-14 06:53:00,65.5,62.2,30.04,SW,221,5.0,12.0,89,0.00,,,0.00,Wunderground v.1.15,2013-01-14 11:53:00,
2013-01-14 06:58:00,65.6,61.9,30.04,SSW,209,5.0,12.0,88,0.00,,,0.00,Wunderground v.1.15,2013-01-14 11:58:00,
2013-01-14 07:03:00,65.7,62.0,30.05,SW,236,7.0,9.0,88,0.00,,,0.00,Wunderground v.1.15,2013-01-14 12:03:00,
2013-01-14 07:08:00,65.7,62.0,30.05,SW,234,2.0,11.0,88,0.00,,,0.00,Wunderground v.1.15,2013-01-14 12:08:00,
2013-01-14 07:13:00,65.6,61.9,30.05,SSW,204,4.0,8.0,88,0.00,,,0.00,Wunderground v.1.15,2013-01-14 12:13:00,
2013-01-14 07:18:00,65.6,61.9,30.05,WSW,237,2.0,9.0,88,0.00,,,0.00,Wunderground v.1.15,2013-01-14 12:18:00,
2013-01-14 07:23:00,65.5,62.2,30.06,West,271,6.0,8.0,89,0.00,,,0.00,Wunderground v.1.15,2013-01-14 12:23:00,
2013-01-14 07:28:00,65.4,62.1,30.05,WSW,244,7.0,10.0,89,0.00,,,0.00,Wunderground v.1.15,2013-01-14 12:28:00,
2013-01-14 07:33:00,65.4,62.1,30.06,SW,233,3.0,7.0,89,0.00,,,0.00,Wunderground v.1.15,2013-01-14 12:33:00,
2013-01-14 07:38:00,65.4,62.1,30.05,SW,231,4.0,8.0,89,0.00,,,0.00,Wunderground v.1.15,2013-01-14 12:38:00,
2013-01-14 07:43:00,65.5,62.2,30.06,SW,222,6.0,13.0,89,0.00,,,0.00,Wunderground v.1.15,2013-01-14 12:43:00,
2013-01-14 07:48:00,65.6,62.3,30.06,West,276,9.0,14.0,89,0.00,,,0.00,Wunderground v.1.15,2013-01-14 12:48:00,
2013-01-14 07:53:00,65.6,62.3,30.06,SW,230,8.0,10.0,89,0.00,,,0.00,Wunderground v.1.15,2013-01-14 12:53:00,
2013-01-14 07:58:00,65.7,62.4,30.07,SW,228,3.0,10.0,89,0.00,,,0.00,Wunderground v.1.15,2013-01-14 12:58:00,
2013-01-14 08:03:00,65.7,62.4,30.07,WSW,256,3.0,7.0,89,0.00,,,0.00,Wunderground v.1.15,2013-01-14 13:03:00,
2013-01-14 08:08:00,65.8,62.5,30.07,SSW,209,6.0,7.0,89,0.00,,,0.00,Wunderground v.1.15,2013-01-14 13:08:00,
2013-01-14 08:13:00,65.9,62.6,30.07,WSW,246,3.0,7.0,89,0.00,,,0.00,Wunderground v.1.15,2013-01-14 13:13:00,
2013-01-14 08:18:00,66.1,62.8,30.07,SSW,212,3.0,11.0,89,0.00,,,0.00,Wunderground v.1.15,2013-01-14 13:18:00,
2013-01-14 08:23:00,66.2,62.9,30.07,SW,231,4.0,9.0,89,0.00,,,0.00,Wunderground v.1.15,2013-01-14 13:23:00,
2013-01-14 08:28:00,66.3,62.6,30.08,SW,227,6.0,11.0,88,0.00,,,0.00,Wunderground v.1.15,2013-01-14 13:28:00,
2013-01-14 08:33:00,66.3,62.6,30.07,SW,219,3.0,12.0,88,0.00,,,0.00,Wunderground v.1.15,2013-01-14 13:33:00,
2013-01-14 08:38:00,66.3,62.6,30.08,SSW,200,11.0,12.0,88,0.00,,,0.00,Wunderground v.1.15,2013-01-14 13:38:00,
2013-01-14 08:43:00,66.3,62.6,30.07,SW,221,9.0,11.0,88,0.00,,,0.00,Wunderground v.1.15,2013-01-14 13:43:00,
2013-01-14 08:48:00,66.4,62.7,30.07,SSW,210,7.0,11.0,88,0.00,,,0.00,Wunderground v.1.15,2013-01-14 13:48:00,
2013-01-14 08:53:00,66.4,62.7,30.07,WSW,239,6.0,8.0,88,0.00,,,0.00,Wunderground v.1.15,2013-01-14 13:53:00,
2013-01-14 08:58:00,66.5,62.8,30.08,South,171,8.0,10.0,88,0.00,,,0.00,Wunderground v.1.15,2013-01-14 13:58:00,
2013-01-14 09:03:00,66.6,62.9,30.08,SW,221,5.0,10.0,88,0.00,,,0.00,Wunderground v.1.15,2013-01-14 14:03:00,
2013-01-14 09:08:00,66.6,62.9,30.08,SSW,213,8.0,14.0,88,0.00,,,0.00,Wunderground v.1.15,2013-01-14 14:08:00,
2013-01-14 09:13:00,66.7,63.0,30.08,SSW,213,8.0,11.0,88,0.00,,,0.00,Wunderground v.1.15,2013-01-14 14:13:00,
2013-01-14 09:18:00,66.9,63.2,30.08,WSW,238,7.0,13.0,88,0.00,,,0.00,Wunderground v.1.15,2013-01-14 14:18:00,
2013-01-14 09:23:00,67.2,63.5,30.08,SW,225,4.0,8.0,88,0.00,,,0.00,Wunderground v.1.15,2013-01-14 14:23:00,
2013-01-14 09:28:00,67.5,63.5,30.09,South,185,10.0,16.0,87,0.00,,,0.00,Wunderground v.1.15,2013-01-14 14:28:00,
2013-01-14 09:33:00,67.9,63.9,30.08,SW,233,5.0,11.0,87,0.00,,,0.00,Wunderground v.1.15,2013-01-14 14:33:00,
2013-01-14 09:38:00,68.4,64.0,30.08,WSW,238,17.0,17.0,86,0.00,,,0.00,Wunderground v.1.15,2013-01-14 14:38:00,
2013-01-14 09:43:00,68.5,63.8,30.08,WSW,243,11.0,11.0,85,0.00,,,0.00,Wunderground v.1.15,2013-01-14 14:43:00,
2013-01-14 09:48:00,68.5,63.8,30.08,SW,236,5.0,12.0,85,0.00,,,0.00,Wunderground v.1.15,2013-01-14 14:48:00,
2013-01-14 09:53:00,68.6,63.9,30.09,WSW,244,6.0,12.0,85,0.00,,,0.00,Wunderground v.1.15,2013-01-14 14:53:00,
2013-01-14 09:58:00,68.8,63.8,30.09,SW,223,7.0,14.0,84,0.00,,,0.00,Wunderground v.1.15,2013-01-14 14:58:00,
2013-01-14 10:03:00,68.9,63.9,30.09,SSW,205,8.0,12.0,84,0.00,,,0.00,Wunderground v.1.15,2013-01-14 15:03:00,
2013-01-14 10:09:00,68.7,63.7,30.09,SSW,198,10.0,12.0,84,0.00,,,0.00,Wunderground v.1.15,2013-01-14 15:09:00,
2013-01-14 10:14:00,68.5,63.5,30.09,SW,216,7.0,14.0,84,0.00,,,0.00,Wunderground v.1.15,2013-01-14 15:14:00,
2013-01-14 10:19:00,68.4,63.7,30.09,WSW,237,7.0,14.0,85,0.00,,,0.00,Wunderground v.1.15,2013-01-14 15:19:00,
2013-01-14 10:24:00,68.4,63.7,30.09,SSW,205,5.0,10.0,85,0.00,,,0.00,Wunderground v.1.15,2013-01-14 15:24:00,
2013-01-14 10:29:00,68.4,63.7,30.09,West,259,5.0,12.0,85,0.00,,,0.00,Wunderground v.1.15,2013-01-14 15:29:00,
2013-01-14 10:34:00,68.4,63.7,30.09,SW,219,8.0,12.0,85,0.00,,,0.00,Wunderground v.1.15,2013-01-14 15:34:00,
2013-01-14 10:39:00,68.6,63.9,30.09,WSW,237,4.0,12.0,85,0.00,,,0.00,Wunderground v.1.15,2013-01-14 15:39:00,
2013-01-14 10:44:00,68.7,63.7,30.09,SW,232,7.0,11.0,84,0.00,,,0.00,Wunderground v.1.15,2013-01-14 15:44:00,
2013-01-14 10:49:00,68.9,63.9,30.08,SW,230,5.0,11.0,84,0.00,,,0.00,Wunderground v.1.15,2013-01-14 15:49:00,
2013-01-14 10:54:00,69.2,64.2,30.08,SW,232,5.0,9.0,84,0.00,,,0.00,Wunderground v.1.15,2013-01-14 15:54:00,
2013-01-14 10:59:00,69.4,64.0,30.08,WNW,286,8.0,13.0,83,0.00,,,0.00,Wunderground v.1.15,2013-01-14 15:59:00,
2013-01-14 11:04:00,69.7,64.3,30.08,WSW,237,5.0,12.0,83,0.00,,,0.00,Wunderground v.1.15,2013-01-14 16:04:00,
2013-01-14 11:09:00,69.9,64.5,30.08,WSW,254,10.0,12.0,83,0.00,,,0.00,Wunderground v.1.15,2013-01-14 16:09:00,
2013-01-14 11:14:00,70.3,64.5,30.07,WSW,245,4.0,15.0,82,0.00,,,0.00,Wunderground v.1.15,2013-01-14 16:14:00,
2013-01-14 11:19:00,71.2,64.7,30.07,WNW,286,8.0,15.0,80,0.00,,,0.00,Wunderground v.1.15,2013-01-14 16:19:00,
2013-01-14 11:24:00,71.9,64.7,30.06,West,265,13.0,17.0,78,0.00,,,0.00,Wunderground v.1.15,2013-01-14 16:24:00,
2013-01-14 11:29:00,72.2,64.6,30.06,SW,221,7.0,19.0,77,0.00,,,0.00,Wunderground v.1.15,2013-01-14 16:29:00,
2013-01-14 11:34:00,72.9,64.9,30.06,SW,217,9.0,22.0,76,0.00,,,0.00,Wunderground v.1.15,2013-01-14 16:34:00,
2013-01-14 11:39:00,73.3,64.5,30.06,SW,214,21.0,22.0,74,0.00,,,0.00,Wunderground v.1.15,2013-01-14 16:39:00,
2013-01-14 11:44:00,72.9,64.9,30.05,SSW,211,22.0,24.0,76,0.00,,,0.00,Wunderground v.1.15,2013-01-14 16:44:00,
2013-01-14 11:49:00,72.9,64.9,30.05,SW,228,16.0,29.0,76,0.00,,,0.00,Wunderground v.1.15,2013-01-14 16:49:00,
2013-01-14 11:54:00,73.4,64.6,30.04,SSW,203,12.0,19.0,74,0.00,,,0.00,Wunderground v.1.15,2013-01-14 16:54:00,
2013-01-14 11:59:00,74.2,65.0,30.04,WSW,247,15.0,19.0,73,0.00,,,0.00,Wunderground v.1.15,2013-01-14 16:59:00,
2013-01-14 12:04:00,74.4,64.8,30.04,WSW,244,19.0,22.0,72,0.00,,,0.00,Wunderground v.1.15,2013-01-14 17:04:00,
2013-01-14 12:09:00,74.5,64.9,30.04,WNW,288,14.0,22.0,72,0.00,,,0.00,Wunderground v.1.15,2013-01-14 17:09:00,
2013-01-14 12:14:00,74.8,65.2,30.03,SW,219,10.0,17.0,72,0.00,,,0.00,Wunderground v.1.15,2013-01-14 17:14:00,
2013-01-14 12:20:00,75.7,65.2,30.03,SW,216,13.0,19.0,70,0.00,,,0.00,Wunderground v.1.15,2013-01-14 17:20:00,
2013-01-14 12:25:00,75.4,64.5,30.03,SW,224,17.0,27.0,69,0.00,,,0.00,Wunderground v.1.15,2013-01-14 17:25:00,
2013-01-14 12:30:00,75.2,64.3,30.03,West,281,14.0,27.0,69,0.00,,,0.00,Wunderground v.1.15,2013-01-14 17:30:00,
2013-01-14 12:35:00,75.1,64.2,30.03,SSW,199,6.0,14.0,69,0.00,,,0.00,Wunderground v.1.15,2013-01-14 17:35:00,
2013-01-14 12:40:00,75.3,64.4,30.03,WSW,249,12.0,19.0,69,0.00,,,0.00,Wunderground v.1.15,2013-01-14 17:40:00,
2013-01-14 12:45:00,75.3,64.4,30.03,WSW,244,8.0,18.0,69,0.00,,,0.00,Wunderground v.1.15,2013-01-14 17:45:00,
2013-01-14 12:50:00,75.5,64.6,30.02,SW,223,19.0,19.0,69,0.00,,,0.00,Wunderground v.1.15,2013-01-14 17:50:00,
2013-01-14 12:55:00,75.5,64.6,30.02,SW,217,10.0,17.0,69,0.00,,,0.00,Wunderground v.1.15,2013-01-14 17:55:00,
2013-01-14 13:00:00,75.7,64.4,30.02,West,269,10.0,17.0,68,0.00,,,0.00,Wunderground v.1.15,2013-01-14 18:00:00,
2013-01-14 13:05:00,75.6,64.3,30.02,SW,230,7.0,17.0,68,0.00,,,0.00,Wunderground v.1.15,2013-01-14 18:05:00,
2013-01-14 13:10:00,75.6,64.3,30.02,WNW,284,9.0,18.0,68,0.00,,,0.00,Wunderground v.1.15,2013-01-14 18:10:00,
2013-01-14 13:15:00,75.6,64.3,30.01,West,260,12.0,18.0,68,0.00,,,0.00,Wunderground v.1.15,2013-01-14 18:15:00,
2013-01-14 13:20:00,75.7,64.4,30.01,West,280,4.0,18.0,68,0.00,,,0.00,Wunderground v.1.15,2013-01-14 18:20:00,
2013-01-14 13:25:00,76.2,64.4,30.01,SSW,196,12.0,17.0,67,0.00,,,0.00,Wunderground v.1.15,2013-01-14 18:25:00,
2013-01-14 13:30:00,76.3,64.1,30.01,SSW,213,6.0,20.0,66,0.00,,,0.00,Wunderground v.1.15,2013-01-14 18:30:00,
2013-01-14 13:35:00,76.7,64.5,30.01,SSW,209,5.0,12.0,66,0.00,,,0.00,Wunderground v.1.15,2013-01-14 18:35:00,
2013-01-14 13:40:00,76.6,64.0,30.01,WNW,285,9.0,20.0,65,0.00,,,0.00,Wunderground v.1.15,2013-01-14 18:40:00,
2013-01-14 13:45:00,76.2,63.1,30.01,SW,221,18.0,19.0,64,0.00,,,0.00,Wunderground v.1.15,2013-01-14 18:45:00,
2013-01-14 13:50:00,76.1,63.9,30.01,WSW,257,12.0,19.0,66,0.00,,,0.00,Wunderground v.1.15,2013-01-14 18:50:00,
2013-01-14 13:55:00,76.0,63.4,30.02,SSW,213,14.0,20.0,65,0.00,,,0.00,Wunderground v.1.15,2013-01-14 18:55:00,
2013-01-14 14:00:00,75.9,63.7,30.01,WSW,251,6.0,20.0,66,0.00,,,0.00,Wunderground v.1.15,2013-01-14 19:00:00,
2013-01-14 14:05:00,75.9,63.7,30.01,WSW,237,6.0,12.0,66,0.00,,,0.00,Wunderground v.1.15,2013-01-14 19:05:00,
2013-01-14 14:10:00,76.1,63.9,30.01,WSW,245,5.0,12.0,66,0.00,,,0.00,Wunderground v.1.15,2013-01-14 19:10:00,
2013-01-14 14:15:00,76.3,63.7,30.01,SW,215,19.0,19.0,65,0.00,,,0.00,Wunderground v.1.15,2013-01-14 19:15:00,
2013-01-14 14:20:00,76.6,64.0,30.02,SW,216,7.0,19.0,65,0.00,,,0.00,Wunderground v.1.15,2013-01-14 19:20:00,
2013-01-14 14:25:00,76.9,64.2,30.01,WSW,250,6.0,12.0,65,0.00,,,0.00,Wunderground v.1.15,2013-01-14 19:25:00,
2013-01-14 14:30:00,77.0,63.9,30.01,WSW,237,6.0,12.0,64,0.00,,,0.00,Wunderground v.1.15,2013-01-14 19:30:00,
2013-01-14 14:36:00,77.0,63.4,30.01,West,271,13.0,19.0,63,0.00,,,0.00,Wunderground v.1.15,2013-01-14 19:36:00,
2013-01-14 14:41:00,76.7,63.6,30.01,SSW,209,6.0,10.0,64,0.00,,,0.00,Wunderground v.1.15,2013-01-14 19:41:00,
2013-01-14 14:46:00,76.4,63.8,30.02,WSW,244,4.0,13.0,65,0.00,,,0.00,Wunderground v.1.15,2013-01-14 19:46:00,
2013-01-14 14:51:00,76.3,63.7,30.02,West,261,5.0,7.0,65,0.00,,,0.00,Wunderground v.1.15,2013-01-14 19:51:00,
2013-01-14 14:56:00,76.2,63.6,30.02,WSW,257,3.0,10.0,65,0.00,,,0.00,Wunderground v.1.15,2013-01-14 19:56:00,
2013-01-14 15:01:00,76.2,63.6,30.02,WSW,246,7.0,7.0,65,0.00,,,0.00,Wunderground v.1.15,2013-01-14 20:01:00,
2013-01-14 15:06:00,76.2,64.0,30.02,SSW,213,8.0,11.0,66,0.00,,,0.00,Wunderground v.1.15,2013-01-14 20:06:00,
2013-01-14 15:11:00,76.2,64.0,30.02,West,268,8.0,8.0,66,0.00,,,0.00,Wunderground v.1.15,2013-01-14 20:11:00,
2013-01-14 15:16:00,76.2,63.6,30.02,West,261,6.0,13.0,65,0.00,,,0.00,Wunderground v.1.15,2013-01-14 20:16:00,
2013-01-14 15:21:00,76.2,63.6,30.02,WSW,240,5.0,7.0,65,0.00,,,0.00,Wunderground v.1.15,2013-01-14 20:21:00,
2013-01-14 15:26:00,76.4,63.8,30.02,SW,221,6.0,11.0,65,0.00,,,0.00,Wunderground v.1.15,2013-01-14 20:26:00,
2013-01-14 15:31:00,76.6,63.5,30.02,SSW,202,7.0,9.0,64,0.00,,,0.00,Wunderground v.1.15,2013-01-14 20:31:00,
2013-01-14 15:36:00,76.9,63.8,30.02,WSW,238,3.0,13.0,64,0.00,,,0.00,Wunderground v.1.15,2013-01-14 20:36:00,
2013-01-14 15:41:00,77.2,63.6,30.02,SW,232,11.0,15.0,63,0.00,,,0.00,Wunderground v.1.15,2013-01-14 20:41:00,
2013-01-14 15:46:00,77.1,63.1,30.03,WSW,258,10.0,15.0,62,0.00,,,0.00,Wunderground v.1.15,2013-01-14 20:46:00,
2013-01-14 15:51:00,76.9,62.9,30.02,SW,221,10.0,12.0,62,0.00,,,0.00,Wunderground v.1.15,2013-01-14 20:51:00,
2013-01-14 15:56:00,76.8,63.2,30.02,WSW,244,5.0,12.0,63,0.00,,,0.00,Wunderground v.1.15,2013-01-14 20:56:00,
2013-01-14 16:01:00,76.7,63.2,30.03,WSW,252,7.0,10.0,63,0.00,,,0.00,Wunderground v.1.15,2013-01-14 21:01:00,
2013-01-14 16:06:00,76.6,63.1,30.02,WSW,241,6.0,14.0,63,0.00,,,0.00,Wunderground v.1.15,2013-01-14 21:06:00,
2013-01-14 16:12:00,76.5,63.4,30.03,SW,223,5.0,6.0,64,0.00,,,0.00,Wunderground v.1.15,2013-01-14 21:12:00,
2013-01-14 16:17:00,76.3,62.8,30.03,SW,214,8.0,13.0,63,0.00,,,0.00,Wunderground v.1.15,2013-01-14 21:17:00,
2013-01-14 16:22:00,76.2,63.1,30.03,SW,223,4.0,7.0,64,0.00,,,0.00,Wunderground v.1.15,2013-01-14 21:22:00,
2013-01-14 16:27:00,76.1,63.0,30.03,SW,234,4.0,8.0,64,0.00,,,0.00,Wunderground v.1.15,2013-01-14 21:27:00,
2013-01-14 16:32:00,75.9,62.8,30.03,SW,217,7.0,9.0,64,0.00,,,0.00,Wunderground v.1.15,2013-01-14 21:32:00,
2013-01-14 16:37:00,75.7,62.7,30.03,WSW,238,6.0,11.0,64,0.00,,,0.00,Wunderground v.1.15,2013-01-14 21:37:00,
2013-01-14 16:42:00,75.5,62.5,30.03,SW,226,2.0,8.0,64,0.00,,,0.00,Wunderground v.1.15,2013-01-14 21:42:00,
2013-01-14 16:47:00,75.3,62.7,30.03,SSW,199,7.0,12.0,65,0.00,,,0.00,Wunderground v.1.15,2013-01-14 21:47:00,
2013-01-14 16:52:00,75.2,62.6,30.03,SSW,196,7.0,11.0,65,0.00,,,0.00,Wunderground v.1.15,2013-01-14 21:52:00,
2013-01-14 16:57:00,75.0,62.4,30.03,SW,221,5.0,11.0,65,0.00,,,0.00,Wunderground v.1.15,2013-01-14 21:57:00,
2013-01-14 17:02:00,74.8,62.2,30.04,SSW,211,5.0,8.0,65,0.00,,,0.00,Wunderground v.1.15,2013-01-14 22:02:00,
2013-01-14 17:07:00,74.6,62.1,30.04,SW,217,4.0,8.0,65,0.00,,,0.00,Wunderground v.1.15,2013-01-14 22:07:00,
2013-01-14 17:12:00,74.5,62.4,30.04,SW,219,5.0,6.0,66,0.00,,,0.00,Wunderground v.1.15,2013-01-14 22:12:00,
2013-01-14 17:17:00,74.3,62.6,30.05,WSW,247,1.0,6.0,67,0.00,,,0.00,Wunderground v.1.15,2013-01-14 22:17:00,
2013-01-14 17:22:00,74.0,62.3,30.05,WSW,242,3.0,4.0,67,0.00,,,0.00,Wunderground v.1.15,2013-01-14 22:22:00,
2013-01-14 17:27:00,73.8,62.6,30.05,SW,219,0.0,5.0,68,0.00,,,0.00,Wunderground v.1.15,2013-01-14 22:27:00,
2013-01-14 17:32:00,73.6,62.4,30.06,SW,220,1.0,2.0,68,0.00,,,0.00,Wunderground v.1.15,2013-01-14 22:32:00,
2013-01-14 17:37:00,73.3,62.5,30.06,SW,220,3.0,4.0,69,0.00,,,0.00,Wunderground v.1.15,2013-01-14 22:37:00,
2013-01-14 17:42:00,73.1,62.3,30.06,SW,221,0.0,3.0,69,0.00,,,0.00,Wunderground v.1.15,2013-01-14 22:42:00,
2013-01-14 17:47:00,72.9,62.1,30.06,SW,221,2.0,3.0,69,0.00,,,0.00,Wunderground v.1.15,2013-01-14 22:47:00,
2013-01-14 17:52:00,72.7,62.3,30.06,SW,221,4.0,5.0,70,0.00,,,0.00,Wunderground v.1.15,2013-01-14 22:52:00,
2013-01-14 17:57:00,72.5,62.2,30.06,SW,221,2.0,5.0,70,0.00,,,0.00,Wunderground v.1.15,2013-01-14 22:57:00,
2013-01-14 18:02:00,72.2,61.9,30.06,SW,219,3.0,7.0,70,0.00,,,0.00,Wunderground v.1.15,2013-01-14 23:02:00,
2013-01-14 18:07:00,72.1,61.8,30.06,SW,219,5.0,7.0,70,0.00,,,0.00,Wunderground v.1.15,2013-01-14 23:07:00,
2013-01-14 18:13:00,72.2,61.9,30.06,SW,221,4.0,6.0,70,0.00,,,0.00,Wunderground v.1.15,2013-01-14 23:13:00,
2013-01-14 18:18:00,72.2,61.9,30.07,SW,221,6.0,7.0,70,0.00,,,0.00,Wunderground v.1.15,2013-01-14 23:18:00,
2013-01-14 18:23:00,72.1,61.8,30.07,SW,215,6.0,6.0,70,0.00,,,0.00,Wunderground v.1.15,2013-01-14 23:23:00,
2013-01-14 18:28:00,71.9,62.0,30.07,SW,215,0.0,6.0,71,0.00,,,0.00,Wunderground v.1.15,2013-01-14 23:28:00,
2013-01-14 18:33:00,71.5,61.6,30.07,SW,215,0.0,2.0,71,0.00,,,0.00,Wunderground v.1.15,2013-01-14 23:33:00,
2013-01-14 18:38:00,71.1,61.6,30.07,SW,215,0.0,2.0,72,0.00,,,0.00,Wunderground v.1.15,2013-01-14 23:38:00,
2013-01-14 18:43:00,70.7,61.6,30.07,SW,215,2.0,2.0,73,0.00,,,0.00,Wunderground v.1.15,2013-01-14 23:43:00,
2013-01-14 18:48:00,70.5,61.4,30.07,SW,215,0.0,2.0,73,0.00,,,0.00,Wunderground v.1.15,2013-01-14 23:48:00,
2013-01-14 18:53:00,70.2,61.5,30.07,SW,215,0.0,1.0,74,0.00,,,0.00,Wunderground v.1.15,2013-01-14 23:53:00,
2013-01-14 18:58:00,70.1,61.4,30.07,SW,215,3.0,4.0,74,0.00,,,0.00,Wunderground v.1.15,2013-01-14 23:58:00,
2013-01-14 19:03:00,69.9,61.6,30.07,SW,215,2.0,4.0,75,0.00,,,0.00,Wunderground v.1.15,2013-01-15 00:03:00,
2013-01-14 19:08:00,69.9,61.6,30.07,SW,215,3.0,4.0,75,0.00,,,0.00,Wunderground v.1.15,2013-01-15 00:08:00,
2013-01-14 19:13:00,69.8,61.5,30.07,SW,215,3.0,4.0,75,0.00,,,0.00,Wunderground v.1.15,2013-01-15 00:13:00,
2013-01-14 19:18:00,69.9,61.6,30.07,SW,215,3.0,5.0,75,0.00,,,0.00,Wunderground v.1.15,2013-01-15 00:18:00,
2013-01-14 19:23:00,70.1,61.8,30.07,SW,215,2.0,5.0,75,0.00,,,0.00,Wunderground v.1.15,2013-01-15 00:23:00,
2013-01-14 19:28:00,70.1,61.8,30.07,SW,215,3.0,5.0,75,0.00,,,0.00,Wunderground v.1.15,2013-01-15 00:28:00,
2013-01-14 19:33:00,70.2,61.5,30.07,SSW,208,4.0,6.0,74,0.00,,,0.00,Wunderground v.1.15,2013-01-15 00:33:00,
2013-01-14 19:38:00,70.2,61.5,30.06,SW,214,3.0,6.0,74,0.00,,,0.00,Wunderground v.1.15,2013-01-15 00:38:00,
2013-01-14 19:43:00,70.1,61.4,30.06,SSW,211,4.0,5.0,74,0.00,,,0.00,Wunderground v.1.15,2013-01-15 00:43:00,
2013-01-14 19:48:00,69.9,61.6,30.06,SSW,202,4.0,6.0,75,0.00,,,0.00,Wunderground v.1.15,2013-01-15 00:48:00,
2013-01-14 19:53:00,69.7,61.4,30.05,SSW,198,3.0,7.0,75,0.00,,,0.00,Wunderground v.1.15,2013-01-15 00:53:00,
2013-01-14 19:58:00,69.5,61.2,30.06,SSW,198,2.0,7.0,75,0.00,,,0.00,Wunderground v.1.15,2013-01-15 00:58:00,
2013-01-14 20:03:00,69.3,61.4,30.06,SSW,198,5.0,5.0,76,0.00,,,0.00,Wunderground v.1.15,2013-01-15 01:03:00,
2013-01-14 20:08:00,69.2,61.3,30.05,SSW,198,5.0,6.0,76,0.00,,,0.00,Wunderground v.1.15,2013-01-15 01:08:00,
2013-01-14 20:13:00,69.0,61.1,30.06,SSW,198,3.0,6.0,76,0.00,,,0.00,Wunderground v.1.15,2013-01-15 01:13:00,
2013-01-14 20:18:00,68.8,61.3,30.05,SSW,198,4.0,6.0,77,0.00,,,0.00,Wunderground v.1.15,2013-01-15 01:18:00,
2013-01-14 20:23:00,68.6,61.1,30.05,SSW,198,2.0,4.0,77,0.00,,,0.00,Wunderground v.1.15,2013-01-15 01:23:00,
2013-01-14 20:28:00,68.4,60.9,30.06,SSW,198,3.0,4.0,77,0.00,,,0.00,Wunderground v.1.15,2013-01-15 01:28:00,
2013-01-14 20:33:00,68.1,61.0,30.06,SSW,198,4.0,4.0,78,0.00,,,0.00,Wunderground v.1.15,2013-01-15 01:33:00,
2013-01-14 20:38:00,68.0,60.9,30.06,SSW,198,2.0,4.0,78,0.00,,,0.00,Wunderground v.1.15,2013-01-15 01:38:00,
2013-01-14 20:43:00,67.8,61.0,30.06,SSW,198,3.0,4.0,79,0.00,,,0.00,Wunderground v.1.15,2013-01-15 01:43:00,
2013-01-14 20:48:00,67.7,61.0,30.06,SSW,198,3.0,5.0,79,0.00,,,0.00,Wunderground v.1.15,2013-01-15 01:48:00,
2013-01-14 20:53:00,67.7,61.0,30.06,SSW,198,4.0,5.0,79,0.00,,,0.00,Wunderground v.1.15,2013-01-15 01:53:00,
2013-01-14 20:58:00,67.7,61.0,30.06,SSW,198,3.0,5.0,79,0.00,,,0.00,Wunderground v.1.15,2013-01-15 01:58:00,
2013-01-14 21:03:00,67.7,61.0,30.05,SSW,202,4.0,6.0,79,0.00,,,0.00,Wunderground v.1.15,2013-01-15 02:03:00,
2013-01-14 21:08:00,67.7,61.0,30.05,SSW,198,4.0,6.0,79,0.00,,,0.00,Wunderground v.1.15,2013-01-15 02:08:00,
2013-01-14 21:13:00,67.6,60.9,30.05,SSW,198,6.0,7.0,79,0.00,,,0.00,Wunderground v.1.15,2013-01-15 02:13:00,
2013-01-14 21:19:00,67.6,61.2,30.05,SSW,198,5.0,7.0,80,0.00,,,0.00,Wunderground v.1.15,2013-01-15 02:19:00,
2013-01-14 21:24:00,67.7,61.3,30.05,South,190,6.0,8.0,80,0.00,,,0.00,Wunderground v.1.15,2013-01-15 02:24:00,
2013-01-14 21:29:00,67.7,61.3,30.05,SSW,212,5.0,8.0,80,0.00,,,0.00,Wunderground v.1.15,2013-01-15 02:29:00,
2013-01-14 21:34:00,67.9,61.1,30.05,SSW,211,4.0,7.0,79,0.00,,,0.00,Wunderground v.1.15,2013-01-15 02:34:00,
2013-01-14 21:38:00,68.0,61.2,30.05,SSW,209,6.0,9.0,79,0.00,,,0.00,Wunderground v.1.15,2013-01-15 02:38:00,
2013-01-14 21:44:00,68.0,61.2,30.05,SW,215,5.0,7.0,79,0.00,,,0.00,Wunderground v.1.15,2013-01-15 02:44:00,
2013-01-14 21:49:00,68.1,61.3,30.05,SSW,213,4.0,9.0,79,0.00,,,0.00,Wunderground v.1.15,2013-01-15 02:49:00,
2013-01-14 21:53:00,68.1,61.3,30.06,SSW,204,5.0,9.0,79,0.00,,,0.00,Wunderground v.1.15,2013-01-15 02:53:00,
2013-01-14 21:59:00,68.1,61.3,30.06,SW,222,3.0,9.0,79,0.00,,,0.00,Wunderground v.1.15,2013-01-15 02:59:00,
2013-01-14 22:04:00,68.1,61.3,30.06,SSW,207,7.0,8.0,79,0.00,,,0.00,Wunderground v.1.15,2013-01-15 03:04:00,
2013-01-14 22:09:00,68.2,61.4,30.06,SW,219,4.0,10.0,79,0.00,,,0.00,Wunderground v.1.15,2013-01-15 03:09:00,
2013-01-14 22:14:00,68.3,61.2,30.06,SW,215,7.0,10.0,78,0.00,,,0.00,Wunderground v.1.15,2013-01-15 03:14:00,
2013-01-14 22:19:00,68.3,61.2,30.06,SW,227,6.0,10.0,78,0.00,,,0.00,Wunderground v.1.15,2013-01-15 03:19:00,
2013-01-14 22:24:00,68.3,61.2,30.05,SSW,205,8.0,8.0,78,0.00,,,0.00,Wunderground v.1.15,2013-01-15 03:24:00,
2013-01-14 22:29:00,68.2,61.4,30.05,SSW,209,5.0,9.0,79,0.00,,,0.00,Wunderground v.1.15,2013-01-15 03:29:00,
2013-01-14 22:34:00,68.1,61.3,30.05,WSW,242,10.0,10.0,79,0.00,,,0.00,Wunderground v.1.15,2013-01-15 03:34:00,
2013-01-14 22:39:00,68.1,61.3,30.05,SW,221,9.0,10.0,79,0.00,,,0.00,Wunderground v.1.15,2013-01-15 03:39:00,
2013-01-14 22:44:00,68.1,61.3,30.06,SSW,213,5.0,11.0,79,0.00,,,0.00,Wunderground v.1.15,2013-01-15 03:44:00,
2013-01-14 22:49:00,68.1,61.3,30.06,SW,215,5.0,11.0,79,0.00,,,0.00,Wunderground v.1.15,2013-01-15 03:49:00,
2013-01-14 22:54:00,68.0,61.2,30.05,SW,224,7.0,11.0,79,0.00,,,0.00,Wunderground v.1.15,2013-01-15 03:54:00,
2013-01-14 22:59:00,67.9,61.1,30.06,SW,215,5.0,11.0,79,0.00,,,0.00,Wunderground v.1.15,2013-01-15 03:59:00,
2013-01-14 23:04:00,67.8,61.4,30.05,SSW,207,7.0,7.0,80,0.00,,,0.00,Wunderground v.1.15,2013-01-15 04:04:00,
2013-01-14 23:09:00,67.8,61.4,30.05,SW,217,4.0,9.0,80,0.00,,,0.00,Wunderground v.1.15,2013-01-15 04:09:00,
2013-01-14 23:14:00,67.7,61.3,30.06,SSW,212,5.0,8.0,80,0.00,,,0.00,Wunderground v.1.15,2013-01-15 04:14:00,
2013-01-14 23:19:00,67.7,61.3,30.06,SW,231,3.0,9.0,80,0.00,,,0.00,Wunderground v.1.15,2013-01-15 04:19:00,
2013-01-14 23:24:00,67.6,61.2,30.06,SW,215,5.0,7.0,80,0.00,,,0.00,Wunderground v.1.15,2013-01-15 04:24:00,
2013-01-14 23:29:00,67.5,61.1,30.06,SW,225,6.0,8.0,80,0.00,,,0.00,Wunderground v.1.15,2013-01-15 04:29:00,
2013-01-14 23:34:00,67.5,61.1,30.06,SW,220,7.0,8.0,80,0.00,,,0.00,Wunderground v.1.15,2013-01-15 04:34:00,
2013-01-14 23:39:00,67.5,61.1,30.06,SW,225,6.0,11.0,80,0.00,,,0.00,Wunderground v.1.15,2013-01-15 04:39:00,
2013-01-14 23:44:00,67.5,61.1,30.06,WSW,242,4.0,9.0,80,0.00,,,0.00,Wunderground v.1.15,2013-01-15 04:44:00,
2013-01-14 23:48:00,40.2,37.5,30.05,WSW,250,0.0,0.0,90,0.00,,,0.04,Wunderground v.1.15,2013-01-15 04:48:00,
2013-01-14 23:49:00,67.4,61.0,30.06,SSW,209,5.0,9.0,80,0.00,,,0.00,Wunderground v.1.15,2013-01-15 04:49:00,
2013-01-14 23:50:00,40.2,37.5,30.05,WSW,250,0.0,0.0,90,0.00,,,0.04,Wunderground v.1.15,2013-01-15 04:50:00,
2013-01-14 23:51:00,40.2,37.5,30.05,WSW,250,0.0,0.0,90,0.00,,,0.04,Wunderground v.1.15,2013-01-15 04:51:00,
2013-01-14 23:52:00,40.2,37.5,30.05,WSW,250,0.0,0.0,90,0.00,,,0.04,Wunderground v.1.15,2013-01-15 04:52:00,
2013-01-14 23:53:00,40.2,37.5,30.05,WSW,250,0.0,0.0,90,0.00,,,0.04,Wunderground v.1.15,2013-01-15 04:53:00,
2013-01-14 23:54:00,67.4,61.0,30.06,SW,217,6.0,8.0,80,0.00,,,0.00,Wunderground v.1.15,2013-01-15 04:54:00,
2013-01-14 23:55:00,40.1,37.4,30.05,WSW,250,0.0,0.0,90,0.00,,,0.00,Wunderground v.1.15,2013-01-15 04:55:00,
2013-01-14 23:59:00,67.4,61.0,30.06,SW,220,4.0,8.0,80,0.00,,,0.00,Wunderground v.1.15,2013-01-15 04:59:00,